Regional Weather Roundup
Issued by NWS Newport/Morehead, NC

Current Version | Previous Version | Text Only | Print | Product List | Glossary On
Versions: 1 2 3 4 5 6 7 8 9 10 11 12 13 14 15 16 17 18 19 20 21 22 23 24 25 26 27 28 29 30 31 32 33 34 35 36 37 38 39 40 41 42 43 44 45 46 47 48 49 50
000 ASUS42 KMHX 231925 RWRMHX WEATHER ROUNDUP FOR EASTERN NORTH CAROLINA NATIONAL WEATHER SERVICE NEWPORT/MOREHEAD CITY NC 300 PM EDT TUE MAY 23 2017 NOTE: "FAIR" INDICATES FEW OR NO CLOUDS BELOW 12,000 FEET WITH NO SIGNIFICANT WEATHER AND/OR OBSTRUCTIONS TO VISIBILITY NCZ015>017-031-032-045>047-102-103-232000- NORTH COAST CITY SKY/WX TMP DP RH WIND PRES REMARKS EDENTON CLOUDY 70 68 92 CALM 29.77F ELIZABETH CITY LGT RAIN 68 67 96 E14 29.78F KITTY HAWK NOT AVBL MANTEO CLOUDY 68 68 99 SE6 29.77F $$ NCZ045>047-081-094-103-104-232000- CENTRAL COAST CITY SKY/WX TMP DP RH WIND PRES REMARKS FRISCO LGT RAIN 73 70 90 SW16G22 29.78F $$ NCZ095-097-098-100-101-232000- SOUTHERN COAST CITY SKY/WX TMP DP RH WIND PRES REMARKS BEAUFORT CLOUDY 78 73 84 SW20G25 29.76F CEDAR ISLAND NOT AVBL JACKSONVILLE LGT RAIN 76 74 92 S9 29.74 FOG PINEY ISLAND MOCLDY N/A N/A N/A SW14G23 29.75 WILMINGTON CLOUDY 80 73 79 SW9 29.74F $$ NCZ011>013-027>030-043-044-078>080-089-090>093-098-232000- COASTAL PLAIN CITY SKY/WX TMP DP RH WIND PRES REMARKS AHOSKIE N/A 66 65 96 NE7 29.78F CLINTON LGT RAIN 74 72 93 SW6 29.73F ELIZABETHTOWN MOSUNNY 75 71 85 SW6 29.73F GOLDSBORO NOT AVBL GREENVILLE PTSUNNY 72 72 100 NE5 29.77F HAVELOCK PTSUNNY 80 71 74 SW15G24 29.75F KENANSVILLE CLOUDY 77 72 83 S5 29.72F KINSTON CLOUDY 75 72 88 NW7 29.74F NEW BERN LGT RAIN 78 74 87 S8 29.75F RICHLANDS CLOUDY 79 72 79 S9 29.73F ROCKY MOUNT LGT RAIN 69 68 96 NE7 29.74F WASHINGTON CLOUDY 72 70 95 NE6 29.73F WHITEVILLE HVY RAIN 72 70 94 W5 29.74S VSB 3/4 $$ AMZ130-135-150-152-154-156-158-170-250-252-270-ANZ085-086-088-633-658-670-232000- MARINE OBSERVATIONS STATION/POSITION TIME TEMP WIND PRES WAVE SWELL AIR SEA DIR/SP/G HT/PER HT/PER (UTC) (F) (DEG/KT/KT) (MB) (FT/S) (FT/S) CHESAPEAKE LIGHT NOT AVBL 64 E VA BEACH 1850 67 65 90/ 14/ 17 1009.9 4/ 4 2/ 8 DUCK 1900 65 65 70/ 11/ 14 1008.2 2 E DUCK 1900 65 N/A 3/ 6 OREGON INLET 1900 67 69 70/ 7/ 10 1008.1 13E OREGON INLT 1848 66 N/A 4/ 6 3/ 6 HATTERAS CG 1900 73 74 190/ 7/ 13 1007.9 DIAMOND BUOY 1850 73 77 210/ 19/ 23 1008.4 6/ 6 CAPE LOOKOUT 1900 76 200/ 14/ 18 1007.6 BEAUFORT LAB 1900 76 74 220/ 11/ 17 1007.0 30 SE NEW RVR IN 1908 76 77 230/ 12/ 16 1008.1 30 SE NEW RVR IN 1913 77 N/A 6/ 7 27 SE WRIGHTSVLE 1908 75 75 210/ 12/ 17 1007.1 5 SE WRIGHTSVLE 1908 76 75 200/ 10/ 16 1007.5 225 S CAPE HAT 1850 77 76 190/ 17/ 21 1013.2 4/ 5 2/12 41 SE CHARLESTON 1910 77 78 210/ 17/ 23 1008.4 $$

USA.gov is the U.S. government's official web portal to all federal, state and local government web resources and services.